Le nostre stazioni meteo in Italia

Pubblicità
Il mio iltempo24.it
Winterbourne No 2, Gran Bretagna (99062): Temperatura & dewpoint: 30.06.2020 00:00:00 - 06.07.2020 00:00:00 (BST)Winterbourne No 2, Gran Bretagna (99062): Temperatura -20cm & Temperatura -100cm: 30.06.2020 00:00:00 - 06.07.2020 00:00:00 (BST)Winterbourne No 2, Gran Bretagna (99062): precipitazioni: 30.06.2020 00:00:00 - 06.07.2020 00:00:00 (BST)
Data & Tempo tt [°C] td [°C] tt -20cm [°C] tt -100cm [°C] rr [mm]
06.07.2020 00:00:00 - - - - -
05.07.2020 23:00:00 13,1 8,0 - - 0,0
05.07.2020 22:00:00 13,9 6,3 - - 0,0
05.07.2020 21:00:00 14,8 5,8 - - 0,0
05.07.2020 20:00:00 15,6 4,9 - - 0,0
05.07.2020 19:00:00 16,2 5,4 - - 0,0
05.07.2020 18:00:00 16,6 6,5 - - 0,0
05.07.2020 17:00:00 17,0 6,2 - - 0,0
05.07.2020 16:00:00 17,4 7,3 - - 0,0
05.07.2020 15:00:00 17,3 5,7 - - 0,0
05.07.2020 14:00:00 16,8 5,5 - - 0,0
05.07.2020 13:00:00 17,0 6,3 - - 0,0
05.07.2020 12:00:00 16,6 5,0 - - 0,0
05.07.2020 11:00:00 16,6 6,6 - - 0,0
05.07.2020 10:00:00 16,2 7,2 16,5 15,0 0,0
05.07.2020 09:00:00 15,3 7,5 - - 0,0
05.07.2020 08:00:00 15,7 9,6 - - 0,0
05.07.2020 07:00:00 15,6 11,4 - - 0,0
05.07.2020 06:00:00 15,2 12,9 - - 0,0
05.07.2020 05:00:00 15,5 13,9 - - 0,4
05.07.2020 04:00:00 15,9 14,4 - - 0,0
05.07.2020 03:00:00 15,8 14,4 - - 0,2
05.07.2020 02:00:00 15,6 14,3 - - 0,0
05.07.2020 01:00:00 15,9 13,6 - - 0,0
05.07.2020 00:00:00 15,9 13,2 - - 0,0
04.07.2020 23:00:00 16,5 13,5 - - 0,0
04.07.2020 22:00:00 16,9 13,5 - - 0,0
04.07.2020 21:00:00 17,4 13,5 - - 0,0
04.07.2020 20:00:00 18,0 13,8 - - 0,0
04.07.2020 19:00:00 18,6 14,4 - - 0,0
04.07.2020 18:00:00 18,4 14,5 - - 0,0
04.07.2020 17:00:00 17,4 15,7 - - 0,0
04.07.2020 16:00:00 17,8 14,7 - - 0,0
04.07.2020 15:00:00 18,5 14,4 - - 0,0
04.07.2020 14:00:00 19,2 14,4 - - 0,0
04.07.2020 13:00:00 18,7 14,4 - - 0,0
04.07.2020 12:00:00 19,5 14,8 - - 0,0
04.07.2020 11:00:00 18,1 14,0 - - 0,0
04.07.2020 10:00:00 17,5 14,2 16,4 15,0 0,0
04.07.2020 09:00:00 16,8 14,1 - - 0,0
04.07.2020 08:00:00 16,6 14,1 - - 0,0
04.07.2020 07:00:00 16,1 14,0 - - 0,0
04.07.2020 06:00:00 16,0 14,0 - - 0,0
04.07.2020 05:00:00 15,7 14,0 - - 0,0
04.07.2020 04:00:00 15,4 14,0 - - 0,0
04.07.2020 03:00:00 15,1 13,9 - - 0,0
04.07.2020 02:00:00 15,0 13,8 - - 0,0
04.07.2020 01:00:00 14,7 13,6 - - 0,0
04.07.2020 00:00:00 14,7 13,3 - - 0,0
03.07.2020 23:00:00 14,7 13,1 - - 0,0
03.07.2020 22:00:00 14,7 12,9 - - 0,0
03.07.2020 21:00:00 14,8 12,8 - - 0,0
03.07.2020 20:00:00 15,0 12,8 - - 0,0
03.07.2020 19:00:00 15,0 12,7 - - 0,0
03.07.2020 18:00:00 14,7 13,0 - - 0,6
03.07.2020 17:00:00 14,3 12,8 - - 1,2
03.07.2020 16:00:00 14,9 12,1 - - 0,2
03.07.2020 15:00:00 15,3 11,3 - - 0,0
03.07.2020 14:00:00 15,8 11,6 - - 0,2
03.07.2020 13:00:00 14,6 11,4 - - 0,0
03.07.2020 12:00:00 16,6 10,4 - - 0,0
03.07.2020 11:00:00 17,5 11,0 - - 0,0
03.07.2020 10:00:00 14,8 11,0 16,4 15,0 0,0
03.07.2020 09:00:00 13,4 11,0 - - 0,2
03.07.2020 08:00:00 12,3 10,7 - - 0,6
03.07.2020 07:00:00 12,4 9,8 - - 0,0
03.07.2020 06:00:00 10,8 9,1 - - 0,0
03.07.2020 05:00:00 10,9 8,7 - - 0,0
03.07.2020 04:00:00 11,4 8,9 - - 0,0
03.07.2020 03:00:00 11,0 8,4 - - 0,0
03.07.2020 02:00:00 11,1 8,2 - - 0,0
03.07.2020 01:00:00 11,9 8,2 - - 0,0
03.07.2020 00:00:00 12,5 8,1 - - 0,0
02.07.2020 23:00:00 13,0 7,9 - - 0,0
02.07.2020 22:00:00 14,4 8,6 - - 0,0
02.07.2020 21:00:00 15,6 11,0 - - 0,0
02.07.2020 20:00:00 16,5 11,3 - - 0,0
02.07.2020 19:00:00 18,0 12,5 - - 0,0
02.07.2020 18:00:00 16,7 12,6 - - 0,0
02.07.2020 17:00:00 17,8 10,9 - - 0,0
02.07.2020 16:00:00 18,2 12,2 - - 0,0
02.07.2020 15:00:00 18,7 11,8 - - 0,0
02.07.2020 14:00:00 18,9 13,3 - - 0,0
02.07.2020 13:00:00 17,6 11,3 - - 0,0
02.07.2020 12:00:00 18,1 10,9 - - 0,0
02.07.2020 11:00:00 16,6 11,9 - - 0,0
02.07.2020 10:00:00 15,6 12,2 16,7 15,0 0,0
02.07.2020 09:00:00 14,0 12,3 - - 0,0
02.07.2020 08:00:00 12,5 11,5 - - 0,4
02.07.2020 07:00:00 12,0 10,8 - - 0,2
02.07.2020 06:00:00 12,0 10,0 - - 0,0
02.07.2020 05:00:00 11,5 9,3 - - 0,0
02.07.2020 04:00:00 12,2 9,6 - - 0,0
02.07.2020 03:00:00 12,7 9,8 - - 0,0
02.07.2020 02:00:00 12,7 9,9 - - 0,0
02.07.2020 01:00:00 13,4 10,4 - - 0,0
02.07.2020 00:00:00 13,4 10,8 - - 0,0
01.07.2020 23:00:00 12,5 10,8 - - 0,0
01.07.2020 22:00:00 14,2 11,1 - - 0,0
01.07.2020 21:00:00 15,6 11,8 - - 0,0
01.07.2020 20:00:00 16,4 13,1 - - 0,0
01.07.2020 19:00:00 16,8 14,0 - - 0,4
01.07.2020 18:00:00 17,1 13,3 - - 0,2
01.07.2020 17:00:00 17,8 13,9 - - 0,6
01.07.2020 16:00:00 18,4 12,9 - - 0,2
01.07.2020 15:00:00 18,6 11,8 - - 0,0
01.07.2020 14:00:00 18,2 12,4 - - 0,2
01.07.2020 13:00:00 15,5 11,9 - - 0,0
01.07.2020 12:00:00 17,3 12,5 - - 0,0
01.07.2020 11:00:00 15,9 12,3 - - 0,0
01.07.2020 10:00:00 16,1 12,8 16,7 15,0 0,0
01.07.2020 09:00:00 14,4 13,1 - - 0,0
01.07.2020 08:00:00 13,9 12,0 - - 0,0
01.07.2020 07:00:00 14,0 12,1 - - 0,0
01.07.2020 06:00:00 13,6 11,8 - - 0,0
01.07.2020 05:00:00 13,5 11,8 - - 0,0
01.07.2020 04:00:00 14,0 12,1 - - 0,0
01.07.2020 03:00:00 14,3 12,0 - - 0,0
01.07.2020 02:00:00 14,6 11,5 - - 0,0
01.07.2020 01:00:00 14,9 11,1 - - 0,0
01.07.2020 00:00:00 15,0 11,9 - - 0,0
30.06.2020 23:00:00 14,6 12,1 - - 0,0
30.06.2020 22:00:00 16,1 13,8 - - 0,8
30.06.2020 21:00:00 17,6 13,5 - - 0,0
30.06.2020 20:00:00 17,7 13,5 - - 0,0
30.06.2020 19:00:00 17,7 13,5 - - 0,0
30.06.2020 18:00:00 16,8 12,4 - - 0,0
30.06.2020 17:00:00 17,8 12,0 - - 0,0
30.06.2020 16:00:00 17,6 11,2 - - 0,0
30.06.2020 15:00:00 17,8 10,8 - - 0,0
30.06.2020 14:00:00 18,0 9,6 - - 0,0
30.06.2020 13:00:00 16,7 8,7 - - 0,0
30.06.2020 12:00:00 16,6 9,6 - - 0,0
30.06.2020 11:00:00 14,7 9,6 - - 0,0
30.06.2020 10:00:00 13,6 9,7 16,5 15,0 0,0
30.06.2020 09:00:00 14,0 10,0 - - 0,0
30.06.2020 08:00:00 13,0 9,4 - - 0,0
30.06.2020 07:00:00 12,5 9,1 - - 0,0
30.06.2020 06:00:00 12,3 9,1 - - 0,0
30.06.2020 05:00:00 12,3 9,0 - - 0,0
30.06.2020 04:00:00 12,4 9,0 - - 0,0
30.06.2020 03:00:00 12,4 9,0 - - 0,0
30.06.2020 02:00:00 12,4 9,2 - - 0,0
30.06.2020 01:00:00 12,5 9,4 - - 0,0
30.06.2020 00:00:00 12,6 9,4 - - 0,0

tt = Temperatura
td = dewpoint
tt -20cm = Temperatura -20cm
tt -100cm = Temperatura -100cm
rr = precipitazioni

Stazioni seguenti

WeatherPro
AMSI
MeteoEarth